When you browse on this site, cookies collect data to enhance your experience and personalize the content and advertising you see.
Visit our Privacy Policy to learn more. By continuing to use the site, you agree to this use of cookies and data.
  • In United Kingdom
  • List of Countries
  • For 7 days
  • Water Temperature
  • Weather Map
  • Weather Widgets
  • user-avatar
    Login

    Hourly Weather Dinagepoor

    Today, 14 December, Saturday

    Time Temperature Precipitation Wind Pressure Humidity
    00:00 +23°C° 0 mm 2 mps 760 mmHg 58%
    01:00 +23°C° 0 mm 2 mps 760 mmHg 58%
    02:00 +21°C° 0 mm 2 mps 760 mmHg 58%
    03:00 +21°C° 0 mm 3 mps 760 mmHg 59%
    04:00 +21°C° 0 mm 3 mps 760 mmHg 60%
    05:00 +20°C° 0 mm 3 mps 760 mmHg 62%
    06:00 +19°C° 0 mm 3 mps 761 mmHg 64%
    07:00 +21°C° 0 mm 3 mps 761 mmHg 60%
    08:00 +22°C° 0 mm 3 mps 762 mmHg 57%
    09:00 +24°C° 0 mm 3 mps 763 mmHg 53%
    10:00 +25°C° 0 mm 3 mps 762 mmHg 50%
    11:00 +25°C° 0 mm 3 mps 762 mmHg 47%
    12:00 +26°C° 0 mm 2 mps 762 mmHg 43%
    13:00 +27°C° 0 mm 2 mps 761 mmHg 42%
    14:00 +27°C° 0 mm 2 mps 760 mmHg 40%
    15:00 +28°C° 0 mm 2 mps 759 mmHg 39%
    16:00 +26°C° 0 mm 2 mps 759 mmHg 42%
    17:00 +25°C° 0 mm 2 mps 759 mmHg 46%
    18:00 +24°C° 0 mm 2 mps 758 mmHg 49%
    19:00 +23°C° 0 mm 1 mps 759 mmHg 51%
    20:00 +23°C° 0 mm 1 mps 759 mmHg 52%
    21:00 +22°C° 0 mm 1 mps 760 mmHg 54%
    22:00 +22°C° 0 mm 1 mps 760 mmHg 55%
    23:00 +22°C° 0 mm 1 mps 759 mmHg 56%

    Tomorrow, 15 December, Sunday

    Time Temperature Precipitation Wind Pressure Humidity
    00:00 +21°C° 0 mm 1 mps 759 mmHg 57%
    01:00 +21°C° 0 mm 1 mps 759 mmHg 58%
    02:00 +21°C° 0 mm 1 mps 759 mmHg 59%
    03:00 +18°C° 0 mm 0 mps 759 mmHg 60%
    04:00 +20°C° 0 mm 1 mps 759 mmHg 62%
    05:00 +19°C° 0 mm 1 mps 759 mmHg 63%
    06:00 +18°C° 0 mm 2 mps 759 mmHg 65%
    07:00 +19°C° 0 mm 2 mps 759 mmHg 61%
    08:00 +20°C° 0 mm 2 mps 760 mmHg 58%
    09:00 +21°C° 0 mm 2 mps 761 mmHg 54%
    10:00 +24°C° 0 mm 1 mps 760 mmHg 50%
    11:00 +26°C° 0 mm 1 mps 760 mmHg 46%
    12:00 +27°C° 0 mm 1 mps 760 mmHg 41%
    13:00 +27°C° 0 mm 1 mps 759 mmHg 39%
    14:00 +28°C° 0 mm 2 mps 758 mmHg 37%
    15:00 +28°C° 0 mm 2 mps 758 mmHg 34%
    16:00 +27°C° 0 mm 2 mps 758 mmHg 37%
    17:00 +26°C° 0 mm 2 mps 758 mmHg 40%
    18:00 +25°C° 0 mm 2 mps 758 mmHg 43%
    19:00 +24°C° 0 mm 2 mps 758 mmHg 45%
    20:00 +24°C° 0 mm 2 mps 758 mmHg 47%
    21:00 +23°C° 0 mm 2 mps 759 mmHg 48%
    22:00 +23°C° 0 mm 1 mps 759 mmHg 49%
    23:00 +22°C° 0 mm 1 mps 759 mmHg 50%

    Day after tomorrow, 16 December, Monday

    Time Temperature Precipitation Wind Pressure Humidity
    00:00 +21°C° 0 mm 1 mps 758 mmHg 51%
    01:00 +21°C° 0 mm 1 mps 758 mmHg 53%
    02:00 +20°C° 0 mm 1 mps 758 mmHg 54%
    03:00 +20°C° 0 mm 1 mps 758 mmHg 56%
    04:00 +20°C° 0 mm 1 mps 758 mmHg 58%
    05:00 +19°C° 0 mm 1 mps 758 mmHg 59%
    06:00 +19°C° 0 mm 1 mps 758 mmHg 61%
    07:00 +21°C° 0 mm 1 mps 759 mmHg 57%
    08:00 +22°C° 0 mm 1 mps 760 mmHg 53%
    09:00 +23°C° 0 mm 1 mps 760 mmHg 49%
    10:00 +25°C° 0 mm 2 mps 760 mmHg 46%
    11:00 +26°C° 0 mm 2 mps 760 mmHg 43%
    12:00 +27°C° 0 mm 2 mps 759 mmHg 40%
    13:00 +28°C° 0 mm 3 mps 759 mmHg 39%
    14:00 +28°C° 0 mm 3 mps 758 mmHg 38%
    15:00 +28°C° 0 mm 3 mps 758 mmHg 37%
    16:00 +27°C° 0 mm 3 mps 758 mmHg 39%
    17:00 +26°C° 0 mm 2 mps 758 mmHg 41%
    18:00 +24°C° 0 mm 2 mps 758 mmHg 44%
    19:00 +23°C° 0 mm 2 mps 758 mmHg 43%
    20:00 +23°C° 0 mm 2 mps 758 mmHg 43%
    21:00 +21°C° 0 mm 2 mps 759 mmHg 43%
    22:00 +20°C° 0 mm 2 mps 759 mmHg 43%
    23:00 +20°C° 0 mm 2 mps 759 mmHg 43%

    17 December, Tuesday

    Time Temperature Precipitation Wind Pressure Humidity
    00:00 +19°C° 0 mm 2 mps 759 mmHg 43%
    01:00 +19°C° 0 mm 2 mps 759 mmHg 45%
    02:00 +18°C° 0 mm 2 mps 759 mmHg 46%
    03:00 +18°C° 0 mm 2 mps 759 mmHg 48%
    04:00 +17°C° 0 mm 2 mps 759 mmHg 50%
    05:00 +17°C° 0 mm 2 mps 759 mmHg 52%
    06:00 +17°C° 0 mm 2 mps 759 mmHg 54%
    07:00 +18°C° 0 mm 2 mps 759 mmHg 51%
    08:00 +19°C° 0 mm 2 mps 760 mmHg 49%
    09:00 +20°C° 0 mm 2 mps 761 mmHg 47%
    10:00 +23°C° 0 mm 2 mps 760 mmHg 43%
    11:00 +25°C° 0 mm 3 mps 760 mmHg 38%
    12:00 +27°C° 0 mm 3 mps 760 mmHg 34%
    13:00 +27°C° 0 mm 4 mps 759 mmHg 33%
    14:00 +27°C° 0 mm 4 mps 758 mmHg 32%
    15:00 +27°C° 0 mm 4 mps 758 mmHg 30%
    16:00 +26°C° 0 mm 3 mps 758 mmHg 34%
    17:00 +24°C° 0 mm 3 mps 758 mmHg 38%
    18:00 +23°C° 0 mm 2 mps 757 mmHg 42%
    19:00 +21°C° 0 mm 2 mps 758 mmHg 44%
    20:00 +20°C° 0 mm 2 mps 759 mmHg 47%
    21:00 +20°C° 0 mm 3 mps 759 mmHg 49%
    22:00 +19°C° 0 mm 2 mps 759 mmHg 49%
    23:00 +19°C° 0 mm 2 mps 759 mmHg 50%

    18 December, Wednesday

    Time Temperature Precipitation Wind Pressure Humidity
    00:00 +18°C° 0 mm 2 mps 759 mmHg 50%
    01:00 +18°C° 0 mm 2 mps 759 mmHg 51%
    02:00 +17°C° 0 mm 2 mps 759 mmHg 51%
    03:00 +16°C° 0 mm 2 mps 759 mmHg 52%
    04:00 +16°C° 0 mm 2 mps 759 mmHg 54%
    05:00 +16°C° 0 mm 2 mps 759 mmHg 56%
    06:00 +15°C° 0 mm 2 mps 759 mmHg 57%
    07:00 +17°C° 0 mm 2 mps 760 mmHg 54%
    08:00 +18°C° 0 mm 2 mps 760 mmHg 51%
    09:00 +19°C° 0 mm 2 mps 761 mmHg 48%
    10:00 +21°C° 0 mm 2 mps 761 mmHg 43%
    11:00 +22°C° 0 mm 3 mps 760 mmHg 39%
    12:00 +25°C° 0 mm 3 mps 760 mmHg 34%
    13:00 +25°C° 0 mm 3 mps 759 mmHg 32%
    14:00 +26°C° 0 mm 3 mps 759 mmHg 31%
    15:00 +26°C° 0 mm 3 mps 758 mmHg 29%
    16:00 +25°C° 0 mm 2 mps 758 mmHg 32%
    17:00 +23°C° 0 mm 2 mps 758 mmHg 36%
    18:00 +21°C° 0 mm 2 mps 758 mmHg 40%
    19:00 +20°C° 0 mm 2 mps 758 mmHg 42%
    20:00 +20°C° 0 mm 2 mps 759 mmHg 44%
    21:00 +19°C° 0 mm 2 mps 759 mmHg 47%
    22:00 +18°C° 0 mm 2 mps 759 mmHg 49%
    23:00 +18°C° 0 mm 2 mps 759 mmHg 51%

    19 December, Thursday

    Time Temperature Precipitation Wind Pressure Humidity
    00:00 +17°C° 0 mm 3 mps 759 mmHg 53%
    01:00 +17°C° 0 mm 2 mps 758 mmHg 54%
    02:00 +16°C° 0 mm 2 mps 758 mmHg 55%
    03:00 +16°C° 0 mm 2 mps 758 mmHg 56%
    04:00 +16°C° 0 mm 2 mps 758 mmHg 57%
    05:00 +15°C° 0 mm 2 mps 758 mmHg 57%
    06:00 +15°C° 0 mm 2 mps 758 mmHg 58%
    07:00 +16°C° 0 mm 2 mps 759 mmHg 54%
    08:00 +17°C° 0 mm 3 mps 759 mmHg 51%
    09:00 +19°C° 0 mm 3 mps 760 mmHg 48%
    10:00 +20°C° 0 mm 3 mps 759 mmHg 44%
    11:00 +22°C° 0 mm 3 mps 759 mmHg 41%
    12:00 +25°C° 0 mm 3 mps 759 mmHg 37%
    13:00 +25°C° 0 mm 2 mps 758 mmHg 36%
    14:00 +26°C° 0 mm 2 mps 757 mmHg 34%
    15:00 +26°C° 0 mm 2 mps 756 mmHg 33%
    16:00 +25°C° 0 mm 2 mps 756 mmHg 36%
    17:00 +23°C° 0 mm 2 mps 756 mmHg 39%
    18:00 +21°C° 0 mm 2 mps 756 mmHg 42%
    19:00 +20°C° 0 mm 2 mps 757 mmHg 43%
    20:00 +19°C° 0 mm 2 mps 757 mmHg 44%
    21:00 +19°C° 0 mm 2 mps 757 mmHg 46%
    22:00 +18°C° 0 mm 2 mps 757 mmHg 47%
    23:00 +18°C° 0 mm 2 mps 757 mmHg 48%
    Show more